Location: Peterborough
(44.3091°N, 78.3197°W)
Time: 17:38:37
(UTC-04:00)

Transit 2A - Pass Details

Date: 27 March 2023
Orbit: 591 x 964 km, 66.7° (Epoch: 04 June)

Event Time Altitude Azimuth Distance (km) Brightness Sun altitude
Rises 06:17:35 0° 223° (SW) 3,207 - -9.0°
Exits shadow 06:19:00 - 225° (SW) 2,669 8.3 -8.8°
Reaches altitude 10° 06:19:54 10° 227° (SW) 2,342 8.0 -8.6°
Maximum altitude 06:25:14 58° 307° (NW) 981 6.4 -7.7°
Drops below altitude 10° 06:31:11 10° 26° (NNE) 2,594 9.3 -6.7°
Sets 06:33:52 0° 31° (NNE) 3,581 10.1 -6.2°
